Wind_Speed
23 24 25 24 24 23 23 23 23 23 23 22 22 23 24 26 26 26 26 26 26 26 26 26 25 25 25 25 25 24 23 22 21 20 19 19 18 18 17 18 19 20
23 25 25 25 25 26 26 25 25 25 25 24 24 24 24 26 27 27 27 27 27 27 27 27 26 26 25 26 26 25 25 24 23 22 21 20 20 19 18 18 19 19
24 25 25 25 26 27 28 28 27 26 26 27 27 26 26 26 27 28 28 27 27 27 28 28 27 27 26 27 27 27 26 26 25 24 22 21 20 20 20 19 19 19
25 25 26 27 27 28 29 29 28 28 28 29 29 29 28 27 27 27 28 28 28 28 28 28 28 28 27 27 28 28 28 27 26 25 24 22 21 22 21 21 20 19
25 26 27 27 28 29 29 29 29 30 30 31 31 31 30 30 29 28 27 28 28 29 29 29 29 29 28 28 28 28 28 28 27 26 26 24 23 23 23 22 22 21
25 26 27 28 28 29 30 29 30 32 32 33 34 33 32 32 31 29 28 28 29 30 30 29 30 30 29 29 29 28 28 28 28 27 27 25 23 24 24 23 23 22
26 27 28 29 29 29 30 30 31 32 33 35 36 35 35 35 34 32 30 29 29 30 31 30 30 31 30 29 29 29 29 29 28 28 27 26 25 24 24 24 23 23
27 27 28 29 29 30 30 31 31 32 34 35 36 36 36 37 37 35 33 32 31 31 31 31 31 32 32 31 30 30 29 29 29 28 29 28 26 26 25 24 23 23
27 27 28 28 29 30 31 32 32 33 35 36 37 38 38 38 39 39 37 35 33 31 31 32 31 32 33 32 31 30 30 30 29 29 30 29 28 28 27 26 25 24
24 26 27 28 29 30 31 32 34 35 36 37 38 39 39 39 40 41 39 37 35 33 32 32 32 33 33 33 31 31 31 31 30 30 30 30 29 29 29 28 26 26
21 25 26 27 28 29 30 32 34 36 36 38 38 39 39 39 41 41 40 39 36 33 32 33 33 34 34 34 33 32 32 32 32 31 31 31 31 30 30 29 28 27
19 23 25 26 27 28 30 32 34 34 35 36 38 38 38 38 40 41 40 40 38 35 34 34 34 35 36 35 34 34 34 33 33 32 33 32 32 31 30 29 28 28
18 21 23 25 26 27 28 30 32 32 33 35 36 37 38 38 40 41 41 41 39 36 35 35 35 36 37 36 36 35 35 35 34 34 34 33 33 33 32 31 30 29
17 19 21 23 24 25 27 29 30 32 33 34 35 36 38 37 37 39 41 42 39 36 35 36 36 37 37 37 37 37 36 36 35 35 35 34 34 34 33 33 32 31
16 18 19 21 22 23 25 27 30 31 33 34 35 36 37 37 37 40 42 42 40 37 36 36 36 35 36 36 36 36 36 35 35 35 35 35 35 34 34 34 33 32
14 15 17 19 20 22 24 26 27 29 31 33 33 35 36 36 38 41 43 42 40 37 36 35 34 34 35 35 34 34 34 35 35 35 35 36 35 35 34 34 34 33
12 13 14 16 18 20 22 22 23 27 32 35 37 37 36 37 38 40 42 42 39 37 36 36 35 35 35 35 35 35 35 35 35 35 35 35 35 35 34 34 34 34
10 10 12 13 16 18 19 18 18 20 23 27 35 39 38 37 38 39 41 42 39 38 38 37 35 35 35 36 37 37 36 35 34 35 35 35 35 34 34 34 35 35
9 9 10 11 13 16 16 15 14 16 17 18 26 36 38 37 36 37 40 42 40 38 37 37 37 37 35 36 37 38 37 36 34 34 34 34 33 33 34 34 34 34
8 9 9 9 10 12 14 13 12 14 15 15 18 27 35 36 35 35 39 41 40 38 37 38 38 36 35 35 36 37 37 36 35 34 33 33 33 33 33 34 34 34
7 8 8 9 9 10 11 11 10 10 10 11 12 19 29 33 32 33 38 42 42 39 37 37 36 34 33 34 35 36 37 37 35 34 33 33 33 33 33 33 33 34
5 6 7 7 8 8 9 8 8 7 8 8 8 11 21 28 31 33 37 40 42 39 37 35 33 32 33 34 34 35 36 36 35 34 33 33 33 33 34 34 34 34
5 5 5 6 7 7 7 7 6 5 6 7 7 7 10 16 23 29 33 35 37 36 34 32 31 31 32 33 33 33 34 34 34 34 34 33 33 33 33 33 33 34
4 4 5 5 6 6 6 6 5 4 4 6 7 6 7 8 13 19 25 29 31 32 32 31 31 31 31 32 32 33 33 33 33 33 33 32 32 32 31 32 33 33
4 4 4 5 5 5 6 6 5 4 2 3 4 4 5 6 8 11 15 20 24 28 30 31 31 31 30 32 33 33 32 31 31 31 31 32 32 32 31 32 32 31
4 4 4 4 5 5 5 5 5 5 3 1 3 3 3 4 5 7 9 11 14 19 24 28 32 32 31 31 31 30 29 29 30 30 30 31 31 31 32 32 31 31
Wind_Direction
245 245 247 246 245 244 242 239 235 233 234 233 232 231 231 231 228 225 223 221 220 221 223 222 221 221 220 218 216 215 216 217 216 214 215 213 210 209 209 211 212 212
246 246 246 245 244 244 243 241 238 235 234 234 233 232 232 234 234 232 229 225 222 222 223 224 223 223 222 221 219 218 217 218 218 218 219 216 214 215 211 211 213 214
248 248 248 246 244 243 243 243 241 238 236 235 235 235 233 233 235 237 236 232 228 226 225 225 225 225 224 222 222 222 221 219 220 220 221 220 219 219 217 216 216 215
247 249 250 251 249 246 244 244 243 242 239 237 237 236 235 234 233 236 238 238 234 230 228 227 227 226 226 225 224 224 224 224 222 221 222 223 223 221 220 221 221 219
249 250 251 252 253 252 249 247 246 244 241 239 238 237 237 236 234 233 236 238 236 233 231 229 228 228 227 227 226 226 227 228 226 224 223 224 224 223 222 223 224 223
252 254 254 254 254 255 254 251 248 246 243 240 238 237 238 238 235 232 232 236 236 233 231 230 229 229 228 228 228 228 228 230 231 228 225 224 226 226 225 226 227 227
254 255 256 256 255 255 255 253 251 248 244 241 239 238 238 238 236 232 230 232 233 232 230 229 228 228 228 228 229 229 229 231 233 233 231 230 229 226 226 228 229 230
254 254 254 254 254 254 254 253 252 248 244 242 240 238 237 237 235 231 228 229 230 230 229 228 227 227 227 227 228 229 229 230 232 234 236 236 233 229 229 230 231 232
253 254 253 253 252 252 252 251 250 247 243 240 238 236 234 234 233 230 227 227 228 228 227 227 226 226 226 226 227 228 230 230 231 233 236 238 237 234 232 232 233 234
253 255 255 253 251 250 248 248 249 247 243 239 236 234 232 233 232 228 224 224 226 225 225 225 225 226 225 224 225 227 229 231 231 233 235 238 238 238 237 236 237 237
257 258 258 256 253 249 247 246 247 246 243 240 236 234 233 232 232 227 222 221 223 223 224 224 224 225 226 223 222 224 226 228 230 232 235 237 238 239 239 239 240 241
260 261 262 260 255 250 247 246 245 243 243 241 238 235 233 231 230 226 221 220 221 220 221 223 223 224 226 224 221 221 224 226 228 230 233 235 237 239 240 241 241 243
264 266 266 263 258 252 248 247 245 243 242 242 239 234 232 231 229 224 221 221 221 219 218 221 222 223 225 225 222 221 222 224 226 228 231 234 236 238 239 240 241 243
270 273 271 265 259 254 249 247 244 242 241 239 237 234 233 232 228 223 221 221 222 221 219 220 222 223 224 226 224 223 222 223 225 226 228 231 234 236 238 239 240 241
275 276 274 267 260 255 252 249 246 244 241 237 235 234 233 232 226 222 221 221 221 221 221 221 222 223 225 227 228 227 226 226 227 227 229 231 233 235 237 239 240 240
281 282 278 269 263 259 257 257 257 254 246 239 235 232 231 231 227 222 220 220 220 221 221 221 222 224 226 227 229 230 231 230 230 231 231 232 233 235 237 239 241 242
290 292 285 273 265 263 264 267 267 260 251 243 235 229 227 228 228 225 220 218 220 220 219 219 220 224 226 226 225 228 230 231 233 234 235 236 236 237 238 240 242 243
297 301 295 281 270 267 272 276 271 264 260 246 231 226 224 224 226 226 221 217 218 220 219 218 220 224 226 227 227 228 228 230 231 234 236 238 239 240 241 241 242 244
306 307 305 295 279 271 272 277 273 272 278 263 235 225 223 223 225 224 217 214 217 220 220 219 221 224 226 228 229 229 229 230 231 232 235 237 239 241 243 244 244 245
316 315 315 311 297 281 274 273 273 275 280 275 250 230 221 221 224 221 215 214 218 221 222 221 221 223 226 228 229 229 229 230 231 233 235 237 238 240 243 245 246 247
321 324 324 322 316 305 291 278 272 274 275 273 258 231 218 219 223 222 218 218 220 221 222 222 223 225 227 228 229 229 229 229 231 233 235 237 238 240 242 244 245 247
325 329 331 329 328 326 319 304 283 268 263 266 260 231 219 223 226 225 223 223 223 224 223 223 225 226 228 229 229 228 228 229 231 233 236 237 238 239 241 243 244 246
331 332 333 334 336 338 341 336 316 279 252 249 252 238 224 224 225 225 225 225 225 225 224 226 227 228 229 230 229 227 228 229 231 233 235 237 238 239 240 243 244 245
338 339 334 336 341 347 356 3 355 321 262 242 243 244 234 222 217 219 222 223 224 224 225 229 230 230 231 232 229 227 227 229 231 234 236 236 237 239 240 242 244 244
332 343 345 344 344 349 360 13 21 15 319 247 242 245 242 231 217 213 215 219 223 227 230 232 233 233 235 234 229 225 226 229 231 234 236 237 237 238 240 242 242 242
312 331 346 350 346 347 357 10 21 29 28 287 237 232 231 226 214 209 210 213 219 225 230 232 233 234 234 230 226 224 226 229 232 234 237 237 237 238 239 240 241 241
Height
5891 5891 5892 5893 5895 5896 5896 5897 5898 5899 5900 5901 5902 5903 5904 5904 5905 5907 5908 5909 5909 5910 5910 5912 5913 5914 5916 5917 5918 5919 5920 5922 5923 5924 5925 5927 5928 5929 5930 5931 5932 5933
5888 5888 5889 5890 5892 5892 5893 5895 5896 5897 5898 5899 5899 5900 5902 5903 5904 5905 5906 5907 5908 5908 5909 5910 5911 5912 5914 5915 5916 5918 5919 5920 5922 5923 5924 5925 5926 5928 5929 5930 5931 5932
5885 5885 5886 5887 5888 5889 5890 5891 5893 5894 5895 5896 5897 5898 5899 5901 5902 5903 5905 5906 5907 5907 5908 5908 5909 5911 5912 5913 5915 5916 5917 5918 5920 5922 5923 5924 5925 5926 5928 5929 5930 5931
5882 5882 5883 5884 5885 5886 5887 5888 5890 5891 5892 5893 5894 5895 5897 5898 5900 5901 5902 5904 5905 5906 5907 5907 5908 5909 5910 5912 5913 5915 5916 5917 5919 5920 5922 5923 5924 5925 5926 5928 5928 5929
5879 5879 5880 5881 5882 5883 5884 5886 5887 5887 5889 5890 5891 5892 5893 5895 5897 5898 5900 5901 5903 5905 5905 5906 5907 5908 5909 5910 5912 5913 5915 5916 5917 5919 5920 5921 5922 5923 5925 5926 5927 5928
5876 5876 5877 5878 5879 5880 5880 5882 5883 5883 5885 5886 5887 5888 5890 5892 5893 5895 5897 5898 5900 5902 5903 5904 5905 5906 5907 5909 5910 5911 5913 5914 5915 5917 5918 5919 5921 5922 5923 5925 5926 5927
5873 5874 5874 5875 5876 5876 5877 5877 5878 5879 5880 5881 5882 5884 5886 5888 5890 5892 5894 5895 5896 5899 5900 5902 5903 5904 5905 5906 5908 5909 5911 5912 5913 5915 5916 5917 5919 5920 5922 5922 5924 5925
5869 5870 5871 5871 5872 5872 5872 5873 5873 5874 5875 5876 5878 5880 5882 5883 5885 5887 5890 5891 5893 5895 5897 5899 5900 5901 5902 5904 5905 5907 5908 5910 5911 5913 5914 5915 5917 5918 5919 5920 5922 5923
5866 5866 5867 5867 5867 5868 5867 5867 5868 5869 5870 5871 5873 5875 5876 5878 5880 5882 5885 5887 5889 5891 5893 5895 5897 5898 5899 5901 5902 5904 5905 5907 5908 5910 5911 5913 5914 5915 5916 5918 5919 5920
5863 5862 5862 5863 5863 5863 5863 5863 5863 5863 5864 5866 5867 5869 5871 5873 5874 5876 5880 5883 5885 5887 5889 5892 5894 5895 5896 5898 5899 5901 5902 5904 5905 5907 5909 5910 5911 5913 5914 5915 5916 5918
5859 5858 5858 5858 5859 5859 5859 5859 5859 5859 5859 5861 5863 5865 5867 5869 5870 5872 5875 5878 5881 5883 5885 5888 5890 5892 5893 5894 5896 5897 5898 5900 5902 5904 5905 5907 5908 5910 5911 5912 5914 5915
5856 5855 5854 5854 5854 5854 5854 5854 5854 5854 5855 5857 5859 5860 5863 5865 5866 5868 5871 5874 5876 5878 5880 5883 5886 5888 5889 5890 5892 5893 5894 5896 5898 5900 5902 5904 5905 5907 5908 5909 5910 5911
5852 5852 5850 5849 5849 5850 5850 5850 5850 5850 5851 5853 5855 5856 5858 5861 5863 5865 5868 5870 5871 5873 5876 5878 5881 5884 5886 5887 5889 5890 5891 5892 5894 5896 5898 5900 5902 5903 5904 5906 5907 5908
5849 5848 5847 5846 5845 5846 5846 5846 5846 5847 5847 5849 5851 5853 5855 5858 5860 5863 5865 5867 5868 5871 5872 5874 5877 5880 5882 5884 5885 5887 5888 5890 5891 5893 5895 5897 5898 5900 5901 5902 5903 5905
5845 5844 5843 5842 5842 5842 5842 5842 5842 5842 5843 5844 5847 5850 5852 5854 5856 5858 5860 5862 5865 5867 5868 5871 5874 5878 5881 5882 5884 5885 5886 5888 5889 5890 5892 5893 5895 5896 5898 5899 5900 5902
5843 5841 5840 5839 5839 5838 5838 5838 5838 5838 5839 5841 5843 5846 5848 5850 5851 5853 5855 5858 5861 5863 5866 5869 5872 5875 5878 5881 5883 5884 5885 5885 5886 5887 5889 5890 5891 5893 5894 5896 5897 5898
5840 5839 5837 5836 5836 5835 5835 5834 5835 5835 5835 5836 5838 5841 5843 5845 5847 5849 5851 5854 5857 5860 5862 5865 5868 5871 5873 5876 5878 5879 5880 5881 5883 5884 5886 5887 5888 5890 5891 5893 5894 5895
5838 5837 5835 5834 5833 5833 5832 5832 5832 5832 5831 5831 5834 5836 5838 5840 5843 5846 5848 5851 5854 5856 5858 5862 5864 5867 5869 5871 5873 5874 5875 5876 5879 5881 5882 5884 5885 5886 5888 5889 5890 5891
5837 5835 5834 5833 5832 5831 5831 5830 5830 5830 5830 5830 5832 5833 5835 5837 5839 5842 5845 5848 5851 5853 5856 5859 5861 5862 5865 5867 5868 5870 5872 5873 5875 5877 5878 5880 5882 5884 5885 5885 5887 5888
5835 5834 5833 5832 5830 5829 5829 5829 5829 5829 5829 5829 5828 5829 5831 5834 5836 5839 5842 5845 5847 5849 5852 5855 5857 5859 5861 5863 5864 5866 5868 5870 5872 5873 5875 5877 5879 5881 5882 5883 5884 5885
5834 5833 5832 5831 5829 5828 5827 5827 5827 5827 5827 5827 5826 5826 5829 5832 5834 5836 5839 5841 5843 5846 5849 5851 5854 5856 5858 5859 5860 5862 5864 5867 5869 5871 5872 5874 5876 5877 5878 5879 5881 5882
5834 5833 5831 5830 5829 5828 5826 5826 5826 5826 5826 5826 5826 5826 5828 5830 5832 5834 5836 5838 5841 5844 5847 5849 5851 5853 5854 5855 5856 5858 5861 5864 5866 5867 5869 5870 5872 5873 5874 5875 5877 5878
5833 5832 5831 5830 5829 5828 5827 5825 5825 5825 5825 5825 5826 5826 5827 5829 5830 5831 5834 5836 5839 5842 5845 5846 5848 5849 5851 5852 5853 5856 5858 5860 5862 5864 5865 5867 5868 5868 5870 5871 5873 5874
5832 5832 5831 5830 5829 5828 5827 5826 5825 5824 5824 5824 5824 5826 5827 5828 5829 5830 5832 5835 5837 5840 5842 5843 5844 5846 5847 5849 5851 5853 5855 5857 5859 5860 5862 5863 5864 5865 5866 5868 5869 5870
5832 5831 5830 5830 5829 5828 5827 5827 5826 5825 5824 5824 5824 5825 5826 5827 5828 5829 5831 5833 5835 5836 5838 5839 5841 5843 5845 5846 5848 5850 5852 5854 5855 5857 5858 5859 5860 5861 5862 5863 5864 5866
5831 5831 5830 5829 5829 5828 5827 5827 5826 5826 5825 5824 5824 5825 5826 5827 5827 5828 5829 5830 5831 5833 5834 5835 5837 5839 5841 5843 5845 5847 5849 5850 5851 5853 5854 5856 5857 5858 5859 5859 5860 5861